Location: Neuvy Saint Sepulchre
(46.5953°N, 1.8122°E)
Time: 09:46:47
(UTC+02:00)

ISS - Pass Details

Date: 22 March 2024
Orbit: 413 x 419 km, 51.6° (Epoch: 13 April)

Event Time Altitude Azimuth Distance (km) Brightness Sun altitude
Rises 19:45:54 0° 275° (W) 2,359 2.7 -7.2°
Reaches altitude 10° 19:48:07 10° 285° (WNW) 1,499 0.8 -7.6°
Maximum altitude 19:51:14 35° 353° (N) 702 -2.5 -8.1°
Drops below altitude 10° 19:54:23 10° 61° (ENE) 1,506 -1.4 -8.6°
Enters shadow 19:54:52 - 64° (ENE) 1,694 -1.2 -8.7°
